EYPAESMQ

Guest
Details From EYPA - PALANGA INTL
To ESMQ - Kalmar
Flight Number -
Tags generated
Created
Modified
Stats Distance 166 nm / 307 km
Max Altitude 18,200 ft / 5,547 m
Waypoints 3
Social Downloads 1
Likes 0
Share VATSIM

Download

Looking for another format? Having issues loading an existing format? Contact us
Advertisement - Login to hide

Notes

Basic altitude profile: - Ascent Rate: 2500ft/min - Ascent Speed: 250kts - Cruise Altitude: 5000ft - Cruise Speed: 420kts - Descent Rate: 1500ft/min - Descent Speed: 250kts Options: - Use NATs: no - Use PACOTS: yes - Use low airways: yes - Use high airways: no

Route

EYPA ADAXA ESMQ

ID Type Via Altitude Latitude Longitude Leg Dist Tot Dist Heading (true) Name
O EYPA APT - 0 ft / 0 m 55.97312˚ 21.09381˚ - 0 nm - PALANGA INTL
ADAXA FIX - 18,200 ft / 5,547 m 56.29778˚ 18.89833˚ 76 nm 76 nm 286° / 284° -
O ESMQ APT - 0 ft / 0 m 56.68565˚ 16.28306˚ 89 nm 165 nm 286° / 284° Kalmar

Altitude Profile

Advertisement - Login to hide

Weather


0- 5 10 15 20 25 30 35+ Temperature / ° C

Clouds and Precipitation
Forecast for 2017-12-13 12:00 UTC. Updated 38 minutes ago

Ground ~20,000 ft ~40,000 ft Winds

EYPA

Details ICAO EYPA (PLQ)
Name PALANGA INTL
Region Lithuania
Timezone Europe/Vilnius (UTC+2.0)
Stats Elevation 33 ft / 10 m (AMSL)
Location 55.973115° 21.093811°
Runways 1
Magnetic Variation 6.525° E

METAR

EYPA 130720Z 24004KT 200V310 9999 -SHRA BKN012CB OVC061 03/02 Q1007 R19/2///95

Decode

TAF

TAF EYPA 122309Z 1300/1324 27014G26KT 9000 BKN020 TEMPO 1300/1303 RA BKN010 TEMPO 1305/1312 5000 SHRA SCT005 BKN015CB BECMG 1314/1316 18012G22KT TEMPO 1318/1324 BKN007

Decode

Departure Runways

ID Width Length Bearing (true) Bearing (mag) Surface Threshold Offset Overrun Length
01 131 ft / 40 m 6,473 ft / 1,973 m 12.70° 6.18° Asphalt 0 ft / 0 m 0 ft / 0 m
19 131 ft / 40 m 6,473 ft / 1,973 m 192.71° 186.19° Asphalt 0 ft / 0 m 0 ft / 0 m

ESMQ

Details ICAO ESMQ (KLR)
Name Kalmar
Region Sweden
Timezone Europe/Stockholm (UTC+1.0)
Stats Elevation 17 ft / 5 m (AMSL)
Location 56.685646° 16.283058°
Runways 2
Magnetic Variation 5.058° E

METAR

ESMQ 130720Z 23012KT 9999 FEW015 SCT019 OVC024 03/01 Q1003

Decode

TAF

Not found

Destination Runways

ID Width Length Bearing (true) Bearing (mag) Surface Threshold Offset Overrun Length
05 131 ft / 40 m 2,174 ft / 663 m 48.03° 42.97° Asphalt 0 ft / 0 m 640 ft / 195 m
16 148 ft / 45 m 6,715 ft / 2,047 m 152.22° 147.16° Asphalt 0 ft / 0 m 0 ft / 0 m
23 131 ft / 40 m 2,174 ft / 663 m 228.03° 222.97° Asphalt 0 ft / 0 m 0 ft / 0 m
34 148 ft / 45 m 6,715 ft / 2,047 m 332.23° 327.17° Asphalt 0 ft / 0 m 873 ft / 266 m

Approach Navaids

Runway Type Ident Frequency Range Bearing (true) Bearing (mag) Slope Elevation
16 Localiser MQ 108.70 MHz 18 nm / 33 km 152.34° 147.29° - 17 ft / 5 m (AMSL)
16 Glidescope MQ 108.70 MHz 10 nm / 19 km 152.23° 147.17° 3.00° 17 ft / 5 m (AMSL)

Popular Alternatives